Voltar ao catálogo

COSMOS 2528

AtivoMilitarLEO
NORAD 43657·PAYLOAD·🇷🇺 Russia

Lançado Oct 25, 2018 de Plesetsk Cosmodrome

Loading…

Próximas Passagens (próximas 24 horas)

TLE

AtualizadoSource: Space-Track

Época: Sep 14, 2026, 14:10 UTC

1 43657U 18082A   26257.59092867 -.00000059  00000-0  11793-4 0  9992
2 43657  67.1474 220.4566 0007850 260.3882  99.6316 13.96714458402435

Acompanhe COSMOS 2528 em tempo real com AllMySat

Download on the App Store